StationID,Date,MaxTemp,MinTemp,Precipitation,Snowfall,SnowDepth
"USW00003178","1997-02-01",64.04,41.00,,,
"USW00003178","1997-02-02",60.98,44.96,,,
"USW00003178","1997-02-03",69.08,41.00,,,
"USW00003178","1997-02-04",62.96,42.08,,,
"USW00003178","1997-02-05",62.06,44.06,,,
"USW00003178","1997-02-06",68.00,39.92,,,
"USW00003178","1997-02-07",68.00,39.92,,,
"USW00003178","1997-02-08",62.06,35.96,,,
"USW00003178","1997-02-09",64.04,37.04,,,
"USW00003178","1997-02-10",62.06,39.02,,,
"USW00003178","1997-02-11",60.98,44.96,,,
"USW00003178","1997-02-12",57.92,42.08,,,
"USW00003178","1997-02-13",73.04,37.94,,,
"USW00003178","1997-02-14",73.04,39.02,,,
"USW00003178","1997-02-15",84.92,44.96,,,
"USW00003178","1997-02-16",73.94,50.00,,,
"USW00003178","1997-02-17",62.96,42.98,,,
"USW00003178","1997-02-18",66.02,46.04,,,
"USW00003178","1997-02-19",73.04,41.00,,,
"USW00003178","1997-02-20",66.92,42.98,,,
"USW00003178","1997-02-21",77.00,46.04,,,
"USW00003178","1997-02-22",71.06,44.06,,,
"USW00003178","1997-02-23",64.04,39.02,,,
"USW00003178","1997-02-24",64.94,42.08,,,
"USW00003178","1997-02-25",66.02,35.96,,,
"USW00003178","1997-02-26",59.00,44.96,,,
"USW00003178","1997-02-27",53.06,46.04,,,
"USW00003178","1997-02-28",60.08,42.08,,,
"USW00003178","1997-03-01",64.94,35.06,,,
"USW00003178","1997-03-02",64.94,35.96,,,
"USW00003178","1997-03-03",62.96,37.04,,,
"USW00003178","1997-03-04",64.94,44.06,,,
"USW00003178","1997-03-05",80.06,39.92,,,
"USW00003178","1997-03-06",77.00,42.98,,,
"USW00003178","1997-03-07",69.98,39.92,,,
"USW00003178","1997-03-08",66.92,39.92,,,
"USW00003178","1997-03-09",78.08,42.08,,,
"USW00003178","1997-03-10",91.94,50.00,,,
"USW00003178","1997-03-11",86.00,51.98,,,
"USW00003178","1997-03-12",71.06,48.02,,,
"USW00003178","1997-03-13",77.00,44.06,,,
"USW00003178","1997-03-14",68.00,44.06,,,
"USW00003178","1997-03-15",66.92,48.02,,,
"USW00003178","1997-03-16",66.92,53.96,,,
"USW00003178","1997-03-17",69.08,48.02,,,
"USW00003178","1997-03-18",84.92,44.96,,,
"USW00003178","1997-03-19",95.00,51.98,,,
"USW00003178","1997-03-20",96.98,53.96,,,
"USW00003178","1997-03-21",77.00,44.96,,,
"USW00003178","1997-03-22",68.00,48.92,,,
"USW00003178","1997-03-23",66.02,51.98,,,
"USW00003178","1997-03-24",68.00,53.06,,,
"USW00003178","1997-03-25",78.98,50.00,,,
"USW00003178","1997-03-26",71.96,46.94,,,
"USW00003178","1997-03-27",66.02,55.94,,,
"USW00003178","1997-03-28",66.02,51.98,,,
"USW00003178","1997-03-29",69.08,50.00,,,
"USW00003178","1997-03-30",62.06,55.94,,,
"USW00003178","1997-03-31",66.92,50.00,,,
"USW00003178","1997-04-01",66.92,44.96,,,
"USW00003178","1997-04-02",62.06,39.02,,,
"USW00003178","1997-04-03",62.96,39.02,,,
"USW00003178","1997-04-04",64.04,44.96,,,
"USW00003178","1997-04-05",64.94,51.98,,,
"USW00003178","1997-04-06",64.94,48.92,,,
"USW00003178","1997-04-07",66.02,44.06,,,
"USW00003178","1997-04-08",71.06,46.04,,,
"USW00003178","1997-04-09",62.96,50.00,,,
"USW00003178","1997-04-10",66.92,46.04,,,
"USW00003178","1997-04-11",66.02,48.02,,,
"USW00003178","1997-04-12",69.98,44.96,,,
"USW00003178","1997-04-13",78.98,48.92,,,
"USW00003178","1997-04-14",73.94,48.02,,,
"USW00003178","1997-04-15",75.02,48.92,,,
"USW00003178","1997-04-16",73.04,51.98,,,
"USW00003178","1997-04-17",69.98,53.96,,,
"USW00003178","1997-04-18",71.06,55.94,,,
"USW00003178","1997-04-19",71.96,57.92,,,
"USW00003178","1997-04-20",73.94,55.94,,,
"USW00003178","1997-04-21",73.04,55.04,,,
"USW00003178","1997-04-22",75.02,53.06,,,
"USW00003178","1997-04-23",71.96,53.06,,,
"USW00003178","1997-04-24",69.98,53.06,,,
"USW00003178","1997-04-25",78.08,46.94,,,
"USW00003178","1997-04-26",84.02,53.96,,,
"USW00003178","1997-04-27",80.96,53.96,,,
"USW00003178","1997-04-28",69.98,53.96,,,
"USW00003178","1997-04-29",71.06,55.94,,,
"USW00003178","1997-04-30",71.06,55.04,,,
"USW00003178","1997-05-01",71.06,55.04,,,
"USW00003178","1997-05-02",78.98,51.08,,,
"USW00003178","1997-05-03",82.04,53.96,,,
"USW00003178","1997-05-04",80.96,53.06,,,
"USW00003178","1997-05-05",84.02,51.08,,,
"USW00003178","1997-05-06",84.92,55.04,,,
"USW00003178","1997-05-07",80.96,53.96,,,
"USW00003178","1997-05-08",73.94,55.04,,,
"USW00003178","1997-05-09",73.94,53.96,,,
"USW00003178","1997-05-10",73.04,60.08,,,
"USW00003178","1997-05-11",71.96,59.00,,,
"USW00003178","1997-05-12",75.02,59.00,,,
"USW00003178","1997-05-13",75.92,57.92,,,
"USW00003178","1997-05-14",75.92,55.94,,,
"USW00003178","1997-05-15",84.02,55.94,,,
"USW00003178","1997-05-16",77.00,60.98,,,
"USW00003178","1997-05-17",77.00,57.92,,,
"USW00003178","1997-05-18",73.04,62.06,,,
"USW00003178","1997-05-19",71.96,57.02,,,
"USW00003178","1997-05-20",73.94,55.94,,,
"USW00003178","1997-05-21",77.00,62.96,,,
"USW00003178","1997-05-22",75.02,57.92,,,
"USW00003178","1997-05-23",75.92,57.02,,,
"USW00003178","1997-05-24",73.04,60.08,,,
"USW00003178","1997-05-25",73.94,59.00,,,
"USW00003178","1997-05-26",77.00,55.94,,,
"USW00003178","1997-05-27",84.02,57.02,,,
"USW00003178","1997-05-28",91.94,57.92,,,
"USW00003178","1997-05-29",87.98,60.08,,,
"USW00003178","1997-05-30",78.98,59.00,,,
"USW00003178","1997-05-31",80.96,60.08,,,
"USW00003178","1997-06-01",82.94,60.98,,,
"USW00003178","1997-06-02",78.08,60.98,,,
"USW00003178","1997-06-03",75.92,60.08,,,
"USW00003178","1997-06-04",77.00,59.00,,,
"USW00003178","1997-06-05",73.04,60.08,,,
"USW00003178","1997-06-06",73.94,60.08,,,
"USW00003178","1997-06-07",73.94,62.06,,,
"USW00003178","1997-06-08",75.02,62.96,,,
"USW00003178","1997-06-09",75.02,62.96,,,
"USW00003178","1997-06-10",73.94,62.06,,,
"USW00003178","1997-06-11",71.96,62.06,,,
"USW00003178","1997-06-12",73.94,60.08,,,
"USW00003178","1997-06-13",69.08,55.04,,,
"USW00003178","1997-06-14",71.96,57.02,,,
"USW00003178","1997-06-15",71.96,53.96,,,
"USW00003178","1997-06-16",75.92,55.04,,,
"USW00003178","1997-06-17",75.02,60.08,,,
"USW00003178","1997-06-18",75.92,60.98,,,
"USW00003178","1997-06-19",77.00,60.98,,,
"USW00003178","1997-06-20",75.02,57.92,,,
"USW00003178","1997-06-21",73.04,60.08,,,
"USW00003178","1997-06-22",73.04,59.00,,,
"USW00003178","1997-06-23",73.04,57.02,,,
"USW00003178","1997-06-24",73.94,53.06,,,
"USW00003178","1997-06-25",75.02,60.08,,,
"USW00003178","1997-06-26",77.00,60.08,,,
"USW00003178","1997-06-27",75.92,60.08,,,
"USW00003178","1997-06-28",75.02,57.92,,,
"USW00003178","1997-06-29",77.00,55.94,,,
"USW00003178","1997-06-30",75.02,60.08,,,
"USW00003178","1997-07-01",82.94,55.94,,,
"USW00003178","1997-07-02",86.00,55.04,,,
"USW00003178","1997-07-03",86.00,55.04,,,
"USW00003178","1997-07-04",80.06,57.02,,,
"USW00003178","1997-07-05",80.06,60.08,,,
"USW00003178","1997-07-06",80.96,60.08,,,
"USW00003178","1997-07-07",78.98,59.00,,,
"USW00003178","1997-07-08",75.02,59.00,,,
"USW00003178","1997-07-09",75.92,59.00,,,
"USW00003178","1997-07-10",75.92,62.06,,,
"USW00003178","1997-07-11",73.94,62.06,,,
"USW00003178","1997-07-12",73.94,57.02,,,
"USW00003178","1997-07-13",75.92,55.94,,,
"USW00003178","1997-07-14",78.98,60.08,,,
"USW00003178","1997-07-15",80.96,57.02,,,
"USW00003178","1997-07-16",78.98,59.00,,,
"USW00003178","1997-07-17",77.00,60.08,,,
"USW00003178","1997-07-18",80.96,60.08,,,
"USW00003178","1997-07-19",73.94,60.08,,,
"USW00003178","1997-07-21",75.02,55.04,,,
"USW00003178","1997-07-22",77.00,62.06,,,
"USW00003178","1997-07-23",75.92,60.98,,,
"USW00003178","1997-07-24",77.00,60.98,,,
"USW00003178","1997-07-25",75.02,60.98,,,
"USW00003178","1997-07-26",75.02,57.92,,,
"USW00003178","1997-07-27",75.02,55.94,,,
"USW00003178","1997-07-28",75.02,62.96,,,
"USW00003178","1997-07-29",71.96,62.96,,,
"USW00003178","1997-07-30",75.92,60.98,,,
"USW00003178","1997-07-31",66.02,-22.00,,,
"USW00003178","1997-08-01",104.00,-22.00,,,
"USW00003178","1997-08-02",89.96,62.96,,,
"USW00003178","1997-08-03",84.92,62.96,,,
"USW00003178","1997-08-04",87.98,64.04,,,
"USW00003178","1997-08-05",93.92,64.04,,,
"USW00003178","1997-08-06",98.96,66.02,,,
"USW00003178","1997-08-07",80.96,66.02,,,
"USW00003178","1997-08-08",78.98,64.94,,,
"USW00003178","1997-08-09",78.08,64.04,,,
"USW00003178","1997-08-10",75.02,62.96,,,
"USW00003178","1997-08-11",75.92,64.04,,,
"USW00003178","1997-08-12",77.00,59.00,,,
"USW00003178","1997-08-13",78.08,57.02,,,
"USW00003178","1997-08-14",77.00,64.04,,,
"USW00003178","1997-08-15",75.02,64.04,,,
"USW00003178","1997-08-16",75.92,62.96,,,
"USW00003178","1997-08-17",77.00,62.96,,,
"USW00003178","1997-08-18",84.02,62.06,,,
"USW00003178","1997-08-19",89.96,66.92,,,
"USW00003178","1997-08-20",84.02,66.92,,,
"USW00003178","1997-08-21",80.06,66.92,,,
"USW00003178","1997-08-22",82.94,66.02,,,
"USW00003178","1997-08-23",84.02,64.04,,,
"USW00003178","1997-08-24",84.92,64.94,,,
"USW00003178","1997-08-25",80.96,64.04,,,
"USW00003178","1997-08-26",80.06,62.06,,,
"USW00003178","1997-08-27",82.04,60.98,,,
"USW00003178","1997-08-28",80.96,62.96,,,
"USW00003178","1997-08-29",78.98,60.98,,,
"USW00003178","1997-08-30",78.98,62.96,,,
"USW00003178","1997-08-31",80.96,62.96,,,
"USW00003178","1997-09-01",84.02,59.00,,,
"USW00003178","1997-09-02",87.08,66.02,,,
"USW00003178","1997-09-03",87.08,69.98,,,
"USW00003178","1997-09-04",89.96,69.08,,,
"USW00003178","1997-09-05",84.02,66.92,,,
"USW00003178","1997-09-06",80.96,69.08,,,
"USW00003178","1997-09-07",82.94,66.02,,,
"USW00003178","1997-09-08",86.00,62.96,,,
"USW00003178","1997-09-09",87.08,64.94,,,
"USW00003178","1997-09-10",84.92,64.04,,,
"USW00003178","1997-09-11",78.98,64.94,,,
"USW00003178","1997-09-12",77.00,60.08,,,
"USW00003178","1997-09-13",80.06,60.08,,,
"USW00003178","1997-09-19",82.04,60.98,,,
"USW00003178","1997-09-20",77.00,57.92,,,
"USW00003178","1997-09-21",80.06,55.94,,,
"USW00003178","1997-09-22",87.98,57.92,,,
"USW00003178","1997-09-23",96.08,57.92,,,
"USW00003178","1997-09-24",104.00,66.92,,,
"USW00003178","1997-09-25",73.94,68.00,,,
"USW00003178","1997-09-26",75.92,64.04,,,
"USW00003178","1997-09-27",78.98,62.06,,,
"USW00003178","1997-09-28",82.94,64.04,,,
"USW00003178","1997-09-29",78.98,62.96,,,
"USW00003178","1997-09-30",78.98,66.92,,,
"USW00003178","1997-10-01",78.98,66.92,,,
"USW00003178","1997-10-02",73.94,64.94,,,
"USW00003178","1997-10-03",78.08,64.04,,,
"USW00003178","1997-10-04",77.00,68.00,,,
"USW00003178","1997-10-05",77.00,66.92,,,
"USW00003178","1997-10-06",71.96,62.06,,,
"USW00003178","1997-10-07",68.00,53.06,,,
"USW00003178","1997-10-08",71.96,50.00,,,
"USW00003178","1997-10-09",75.92,51.98,,,
"USW00003178","1997-10-10",73.04,51.08,,,
"USW00003178","1997-10-11",68.00,51.98,,,
"USW00003178","1997-10-12",75.02,46.94,,,
"USW00003178","1997-10-13",84.02,51.08,,,
"USW00003178","1997-10-14",98.06,55.94,,,
"USW00003178","1997-10-15",93.92,57.92,,,
"USW00003178","1997-10-16",98.96,60.08,,,
"USW00003178","1997-10-17",91.94,57.92,,,
"USW00003178","1997-10-18",82.94,53.96,,,
"USW00003178","1997-10-19",71.06,51.08,,,
"USW00003178","1997-10-20",71.06,59.00,,,
"USW00003178","1997-10-21",69.98,57.02,,,
"USW00003178","1997-10-22",71.96,57.02,,,
"USW00003178","1997-10-23",71.96,60.08,,,
"USW00003178","1997-10-24",69.98,53.96,,,
"USW00003178","1997-10-25",78.08,50.00,,,
"USW00003178","1997-10-26",78.98,46.94,,,
"USW00003178","1997-10-27",71.96,46.94,,,
"USW00003178","1997-10-28",73.94,46.94,,,
"USW00003178","1997-10-29",73.94,46.94,,,
"USW00003178","1997-10-30",80.96,48.02,,,
"USW00003178","1997-10-31",82.94,51.98,,,
"USW00003178","1997-11-01",89.06,55.94,,,
"USW00003178","1997-11-02",95.00,60.98,,,
"USW00003178","1997-11-03",89.96,62.06,,,
"USW00003178","1997-11-04",82.94,53.06,,,
"USW00003178","1997-11-05",75.02,51.98,,,
"USW00003178","1997-11-06",77.00,51.08,,,
"USW00003178","1997-11-07",71.06,53.06,,,
"USW00003178","1997-11-08",69.08,51.98,,,
"USW00003178","1997-11-09",69.98,46.94,,,
"USW00003178","1997-11-10",62.96,53.06,,,
"USW00003178","1997-11-11",66.02,50.00,,,
"USW00003178","1997-11-12",66.92,48.92,,,
"USW00003178","1997-11-13",60.98,48.02,,,
"USW00003178","1997-11-14",66.02,50.00,,,
"USW00003178","1997-11-15",66.92,46.94,,,
"USW00003178","1997-11-16",69.98,46.04,,,
"USW00003178","1997-11-17",68.00,44.96,,,
"USW00003178","1997-11-18",73.04,42.08,,,
"USW00003178","1997-11-19",69.08,44.06,,,
"USW00003178","1997-11-20",69.08,53.06,,,
"USW00003178","1997-11-21",71.96,48.92,,,
"USW00003178","1997-11-22",82.94,50.00,,,
"USW00003178","1997-11-23",77.00,48.92,,,
"USW00003178","1997-11-24",71.96,48.02,,,
"USW00003178","1997-11-25",73.94,48.92,,,
"USW00003178","1997-11-26",71.96,53.06,,,
"USW00003178","1997-11-27",62.06,46.94,,,
"USW00003178","1997-11-28",66.92,42.08,,,
"USW00003178","1997-11-29",64.94,42.98,,,
"USW00003178","1997-11-30",62.06,51.08,,,
"USW00003178","1997-12-01",62.06,44.06,,,
"USW00003178","1997-12-02",66.02,46.94,,,
"USW00003178","1997-12-03",69.08,44.96,,,
"USW00003178","1997-12-04",69.98,50.00,,,
"USW00003178","1997-12-05",73.04,50.00,,,
"USW00003178","1997-12-06",64.94,55.04,,,
"USW00003178","1997-12-07",64.94,53.06,,,
"USW00003178","1997-12-08",60.08,51.08,,,
"USW00003178","1997-12-09",62.06,41.00,,,
"USW00003178","1997-12-10",64.04,35.06,,,
"USW00003178","1997-12-11",60.08,42.08,,,
"USW00003178","1997-12-12",64.04,42.08,,,
"USW00003178","1997-12-13",73.94,46.04,,,
"USW00003178","1997-12-14",66.02,44.96,,,
"USW00003178","1997-12-16",69.98,46.94,,,
"USW00003178","1997-12-17",68.00,41.00,,,
"USW00003178","1997-12-18",64.04,42.98,,,
"USW00003178","1997-12-19",66.92,46.04,,,
"USW00003178","1997-12-20",66.02,41.00,,,
"USW00003178","1997-12-21",57.92,42.98,,,
"USW00003178","1997-12-22",57.02,37.04,,,
"USW00003178","1997-12-23",62.96,39.02,,,
"USW00003178","1997-12-24",59.00,41.00,,,
"USW00003178","1997-12-25",57.02,35.06,,,
"USW00003178","1997-12-26",60.98,33.08,,,
"USW00003178","1997-12-27",64.94,35.06,,,
"USW00003178","1997-12-28",68.00,39.92,,,
"USW00003178","1997-12-29",71.06,44.96,,,
"USW00003178","1997-12-30",75.92,51.08,,,
"USW00003178","1997-12-31",75.92,51.08,,,
"USW00003178","1998-01-01",73.04,46.94,,,
"USW00003178","1998-01-02",64.04,44.96,,,
"USW00003178","1998-01-03",60.98,51.98,,,
"USW00003178","1998-01-04",60.98,46.94,,,
"USW00003178","1998-01-05",60.08,37.94,,,
"USW00003178","1998-01-06",60.98,35.96,,,
"USW00003178","1998-01-07",62.96,35.96,,,
"USW00003178","1998-01-08",62.06,42.08,,,
"USW00003178","1998-01-09",59.00,48.92,,,
"USW00003178","1998-01-10",62.96,50.00,,,
"USW00003178","1998-01-11",62.96,48.02,,,
"USW00003178","1998-01-12",60.98,51.98,,,
"USW00003178","1998-01-13",60.98,48.92,,,
"USW00003178","1998-01-14",62.96,46.04,,,
"USW00003178","1998-01-15",59.00,48.02,,,
"USW00003178","1998-01-16",64.94,51.08,,,
"USW00003178","1998-01-17",66.02,48.02,,,
"USW00003178","1998-01-18",64.04,50.00,,,
"USW00003178","1998-01-19",60.98,48.02,,,
"USW00003178","1998-01-20",59.00,44.96,,,
"USW00003178","1998-01-21",60.98,42.98,,,
"USW00003178","1998-01-22",66.02,39.92,,,
"USW00003178","1998-01-23",66.02,39.92,,,
"USW00003178","1998-01-24",64.04,41.00,,,
"USW00003178","1998-01-25",69.08,42.98,,,
"USW00003178","1998-01-26",71.06,41.00,,,
"USW00003178","1998-01-27",64.04,42.98,,,
"USW00003178","1998-01-28",62.96,44.06,,,
"USW00003178","1998-01-29",60.08,46.94,,,
"USW00003178","1998-01-30",62.96,42.08,,,
"USW00003178","1998-01-31",59.00,42.98,,,
"USW00003178","1998-02-01",62.96,46.04,,,
"USW00003178","1998-02-02",66.02,46.04,,,
"USW00003178","1998-02-03",60.98,50.00,,,
"USW00003178","1998-02-04",59.00,48.02,,,
"USW00003178","1998-02-05",60.98,42.98,,,
"USW00003178","1998-02-06",59.00,48.02,,,
"USW00003178","1998-02-07",62.06,44.96,,,
"USW00003178","1998-02-08",60.98,51.98,,,
"USW00003178","1998-02-09",60.08,44.06,,,
"USW00003178","1998-02-10",64.04,41.00,,,
"USW00003178","1998-02-11",64.04,46.94,,,
"USW00003178","1998-02-12",64.94,42.98,,,
"USW00003178","1998-02-13",62.06,48.92,,,
"USW00003178","1998-02-14",59.00,48.92,,,
"USW00003178","1998-02-15",55.94,44.96,,,
"USW00003178","1998-02-16",60.08,42.08,,,
"USW00003178","1998-02-17",57.92,46.94,,,
"USW00003178","1998-02-18",62.96,42.98,,,
"USW00003178","1998-02-19",60.08,42.98,,,
"USW00003178","1998-02-20",57.92,42.98,,,
"USW00003178","1998-02-21",60.08,42.98,,,
"USW00003178","1998-02-22",60.98,50.00,,,
"USW00003178","1998-02-23",62.06,48.92,,,
"USW00003178","1998-02-24",57.92,46.04,,,
"USW00003178","1998-02-25",60.08,42.08,,,
"USW00003178","1998-02-26",60.08,42.98,,,
"USW00003178","1998-02-27",62.06,41.00,,,
"USW00003178","1998-02-28",69.08,42.08,,,
"USW00003178","1998-03-01",69.08,42.08,,,
"USW00003178","1998-03-02",62.96,44.06,,,
"USW00003178","1998-03-03",62.06,50.00,,,
"USW00003178","1998-03-04",62.06,46.04,,,
"USW00003178","1998-03-05",62.06,46.04,,,
"USW00003178","1998-03-06",57.02,48.02,,,
"USW00003178","1998-03-07",60.08,39.02,,,
"USW00003178","1998-03-08",64.04,39.02,,,
"USW00003178","1998-03-09",68.00,39.92,,,
"USW00003178","1998-03-10",75.02,41.00,,,
"USW00003178","1998-03-11",77.00,42.08,,,
"USW00003178","1998-03-12",71.06,42.98,,,
"USW00003178","1998-03-13",64.94,51.08,,,
"USW00003178","1998-03-14",60.08,46.94,,,
"USW00003178","1998-03-15",66.02,44.96,,,
"USW00003178","1998-03-16",62.06,53.96,,,
"USW00003178","1998-03-17",64.04,50.00,,,
"USW00003178","1998-03-18",66.02,53.96,,,
"USW00003178","1998-03-19",69.98,48.92,,,
"USW00003178","1998-03-20",64.04,46.94,,,
"USW00003178","1998-03-21",66.92,48.92,,,
"USW00003178","1998-03-22",71.96,46.04,,,
"USW00003178","1998-03-23",73.04,46.94,,,
"USW00003178","1998-03-24",69.98,51.98,,,
"USW00003178","1998-03-25",60.08,51.08,,,
"USW00003178","1998-03-26",60.98,50.00,,,
"USW00003178","1998-03-27",60.98,51.08,,,
"USW00003178","1998-03-28",55.04,44.06,,,
"USW00003178","1998-03-29",53.96,39.02,,,
"USW00003178","1998-03-30",62.06,37.94,,,
"USW00003178","1998-03-31",62.06,41.00,,,
"USW00003178","1998-04-01",57.02,44.96,117.00,,
"USW00003178","1998-04-02",62.06,46.04,0.00,,
"USW00003178","1998-04-03",62.96,44.06,3.00,,
"USW00003178","1998-04-04",62.06,44.06,0.00,,
"USW00003178","1998-04-05",64.04,41.00,8.00,,
"USW00003178","1998-04-06",60.98,44.96,51.00,,
"USW00003178","1998-04-07",62.06,44.96,5.00,,
"USW00003178","1998-04-08",64.04,42.08,0.00,,
"USW00003178","1998-04-09",66.92,42.98,0.00,,
"USW00003178","1998-04-10",66.92,44.06,3.00,,
"USW00003178","1998-04-11",64.04,48.92,104.00,,
"USW00003178","1998-04-12",60.08,48.02,10.00,,
"USW00003178","1998-04-13",62.06,44.96,3.00,,
"USW00003178","1998-04-14",60.98,48.02,36.00,,
"USW00003178","1998-04-15",60.08,42.98,104.00,,
"USW00003178","1998-04-16",64.04,41.00,0.00,,
"USW00003178","1998-04-17",71.06,44.06,0.00,,
"USW00003178","1998-04-18",73.04,44.06,0.00,,
"USW00003178","1998-04-19",75.02,46.94,0.00,,
"USW00003178","1998-04-20",75.02,48.02,0.00,,
"USW00003178","1998-04-21",73.04,51.08,3.00,,
"USW00003178","1998-04-22",69.08,55.04,3.00,,
"USW00003178","1998-04-23",66.92,55.04,0.00,,
"USW00003178","1998-04-24",68.00,53.06,18.00,,
"USW00003178","1998-04-25",66.92,50.00,0.00,,
"USW00003178","1998-04-26",71.06,48.02,0.00,,
"USW00003178","1998-04-27",75.02,46.94,3.00,,
"USW00003178","1998-04-28",75.92,50.00,0.00,,
"USW00003178","1998-04-29",73.94,48.92,3.00,,
"USW00003178","1998-04-30",69.98,53.96,0.00,,
"USW00003178","1998-05-01",69.98,51.98,0.00,,
"USW00003178","1998-05-02",75.02,51.98,0.00,,
"USW00003178","1998-05-03",77.00,57.02,0.00,,
"USW00003178","1998-05-04",75.92,53.96,0.00,,
"USW00003178","1998-05-05",73.04,55.94,48.00,,
"USW00003178","1998-05-06",71.06,53.06,36.00,,
"USW00003178","1998-05-07",69.98,53.06,5.00,,
"USW00003178","1998-05-08",66.92,55.94,3.00,,
"USW00003178","1998-05-09",64.04,53.96,0.00,,
"USW00003178","1998-05-10",66.92,50.00,0.00,,
"USW00003178","1998-05-11",66.02,51.98,0.00,,
"USW00003178","1998-05-12",68.00,50.00,127.00,,
"USW00003178","1998-05-13",64.94,48.92,3.00,,
"USW00003178","1998-05-14",66.92,44.96,0.00,,
"USW00003178","1998-05-15",69.98,46.04,3.00,,
"USW00003178","1998-05-16",69.08,50.00,0.00,,
"USW00003178","1998-05-17",71.96,48.02,0.00,,
"USW00003178","1998-05-18",73.04,48.02,3.00,,
"USW00003178","1998-05-19",71.06,46.04,0.00,,
"USW00003178","1998-05-20",68.00,53.06,0.00,,
"USW00003178","1998-05-21",69.98,51.08,0.00,,
"USW00003178","1998-05-22",69.98,51.98,0.00,,
"USW00003178","1998-05-23",71.06,53.06,0.00,,
"USW00003178","1998-05-24",71.96,57.02,0.00,,
"USW00003178","1998-05-25",66.92,57.02,3.00,,
"USW00003178","1998-05-26",66.02,50.00,3.00,,
"USW00003178","1998-05-27",68.00,44.96,0.00,,
"USW00003178","1998-05-28",71.96,48.92,0.00,,
"USW00003178","1998-05-29",69.98,53.96,0.00,,
"USW00003178","1998-05-30",71.96,50.00,0.00,,
"USW00003178","1998-05-31",71.96,48.92,0.00,,
"USW00003178","1998-06-01",73.04,51.98,0.00,,
"USW00003178","1998-06-02",71.96,53.96,0.00,,
"USW00003178","1998-06-03",71.06,55.04,3.00,,
"USW00003178","1998-06-04",71.06,53.96,0.00,,
"USW00003178","1998-06-05",71.06,51.08,0.00,,
"USW00003178","1998-06-06",71.06,57.92,0.00,,
"USW00003178","1998-06-07",69.08,53.96,8.00,,
"USW00003178","1998-06-08",64.94,57.02,13.00,,
"USW00003178","1998-06-09",69.98,55.94,0.00,,
"USW00003178","1998-06-10",73.04,60.08,0.00,,
"USW00003178","1998-06-11",64.94,57.02,3.00,,
"USW00003178","1998-06-12",69.98,53.96,0.00,,0.00
"USW00003178","1998-06-13",73.94,51.08,0.00,,
"USW00003178","1998-06-14",75.02,53.96,0.00,,
"USW00003178","1998-06-15",73.04,59.00,0.00,,
"USW00003178","1998-06-16",69.08,57.92,0.00,,
"USW00003178","1998-06-17",,,0.00,,
"USW00003178","1998-06-18",75.02,53.96,0.00,,
"USW00003178","1998-06-19",78.08,60.08,0.00,,
"USW00003178","1998-06-20",73.04,60.98,0.00,,
"USW00003178","1998-06-21",75.92,57.92,0.00,,
"USW00003178","1998-06-22",75.02,53.06,0.00,,
"USW00003178","1998-06-23",73.04,57.92,0.00,,
"USW00003178","1998-06-24",75.02,55.04,0.00,,
"USW00003178","1998-06-25",75.92,59.00,0.00,,
"USW00003178","1998-06-26",77.00,60.98,0.00,,
"USW00003178","1998-06-27",75.92,60.98,0.00,,
"USW00003178","1998-06-28",77.00,59.00,0.00,,
"USW00003178","1998-06-29",78.98,55.04,3.00,,
"USW00003178","1998-06-30",77.00,60.08,0.00,,
"USW00003178","1998-07-01",75.92,60.98,0.00,,
"USW00003178","1998-07-02",77.00,60.08,0.00,,
"USW00003178","1998-07-03",71.06,57.92,0.00,,
"USW00003178","1998-07-04",73.04,55.94,0.00,,
"USW00003178","1998-07-05",77.00,57.02,0.00,,
"USW00003178","1998-07-06",82.04,57.02,0.00,,
"USW00003178","1998-07-07",82.94,62.06,0.00,,
"USW00003178","1998-07-08",82.04,60.98,0.00,,
"USW00003178","1998-07-09",80.06,59.00,0.00,,
"USW00003178","1998-07-10",78.98,59.00,0.00,,
"USW00003178","1998-07-11",78.98,57.92,0.00,,
"USW00003178","1998-07-12",77.00,60.08,0.00,,
"USW00003178","1998-07-13",75.92,59.00,0.00,,
"USW00003178","1998-07-14",78.08,57.92,0.00,,
"USW00003178","1998-07-15",80.96,57.92,3.00,,
"USW00003178","1998-07-16",87.08,57.02,0.00,,
"USW00003178","1998-07-17",87.08,60.08,3.00,,
"USW00003178","1998-07-18",84.02,60.98,0.00,,
"USW00003178","1998-07-19",80.06,60.98,0.00,,
"USW00003178","1998-07-20",82.04,64.04,0.00,,
"USW00003178","1998-07-21",78.98,62.96,0.00,,
"USW00003178","1998-07-22",77.00,64.04,0.00,,
"USW00003178","1998-07-23",75.92,64.04,0.00,,
"USW00003178","1998-07-24",75.92,64.04,0.00,,
"USW00003178","1998-07-25",78.98,64.04,0.00,,
"USW00003178","1998-07-26",89.06,62.06,0.00,,
"USW00003178","1998-07-27",86.00,60.98,0.00,,
"USW00003178","1998-07-28",86.00,62.06,3.00,,
"USW00003178","1998-07-29",80.06,62.96,0.00,,
"USW00003178","1998-07-30",77.00,60.98,0.00,,
"USW00003178","1998-07-31",78.08,59.00,0.00,,
"USW00003178","1998-08-01",82.04,53.96,3.00,,
"USW00003178","1998-08-02",82.94,62.96,0.00,,
"USW00003178","1998-08-03",86.00,64.04,0.00,,
"USW00003178","1998-08-04",86.00,62.06,3.00,,
"USW00003178","1998-08-05",80.06,62.96,0.00,,